This demonstration page uses our WeatherBlox Daily Observations layout. Learn more.

38.89511, -77.03637

Hourly Observations for July 18, 2019

Temp ( °F °C ) Dew Point ( °F °C ) Humidity (%) Winds ( mph kmh ) Pressure ( in mb ) Visibility ( mi km ) Precip ( " mm )
12:52 am 00:52 Mostly Cloudy 79 26.1 75 23.9 88 88 S 6 9 29.88 1012 10 16.09344 0 0
1:52 am 01:52 Mostly Cloudy 79 26.1 75 23.9 88 88 Calm 29.88 1012 10 16.09344 0 0
2:52 am 02:52 Mostly Cloudy 79 26.1 75 23.9 88 88 S 6 9 29.85 1011 10 16.09344 0 0
3:52 am 03:52 Mostly Cloudy 79 26.1 75 23.9 88 88 S 7 11 29.85 1011 10 16.09344 0 0
4:52 am 04:52 Partly Cloudy 79 26.1 74 23.3 85 85 SSW 5 7 29.85 1011 10 16.09344 0 0
5:52 am 05:52 Partly Cloudy 78 25.6 74 23.3 87 87 Calm 29.85 1011 10 16.09344 0 0
6:52 am 06:52 Mostly Cloudy 79 26.1 74 23.3 85 85 S 7 11 29.85 1011 10 16.09344 0 0
7:52 am 07:52 Partly Cloudy 80 26.7 74 23.3 82 82 SSW 5 7 29.88 1012 10 16.09344 0 0
8:52 am 08:52 Partly Cloudy 82 27.8 75 23.9 79 79 S 6 9 29.88 1012 10 16.09344 0 0
9:52 am 09:52 Partly Cloudy 84 28.9 76 24.4 77 77 SSE 7 11 29.88 1012 10 16.09344 0 0
10:52 am 10:52 Mostly Cloudy 87 30.6 73 22.8 63 63 VRB 6 9 29.88 1012 10 16.09344 0 0
11:52 am 11:52 Mostly Cloudy 87 30.6 72 22.2 61 61 VRB 6 9 29.88 1012 10 16.09344 0 0
12:52 pm 12:52 Mostly Cloudy 89 31.7 72 22.2 57 57 W 8 13 29.85 1011 10 16.09344 0 0
1:52 pm 13:52 Mostly Cloudy 90 32.2 72 22.2 56 56 WNW 10 17 29.85 1011 10 16.09344 0 0
2:52 pm 14:52 Mostly Cloudy 90 32.2 73 22.8 58 58 NNW 13 20 29.85 1011 10 16.09344 0 0
4:52 pm 16:52 Mostly Cloudy 92 33.3 71 21.7 51 51 WNW 8 13 29.85 1011 10 16.09344 0 0
5:52 pm 17:52 Mostly Cloudy 91 32.8 71 21.7 52 52 NNW 10 17 29.83 1010 10 16.09344 0 0
6:52 pm 18:52 Partly Cloudy 90 32.2 72 22.2 56 56 NNW 12 19 29.85 1011 10 16.09344 0 0
7:11 pm 19:11 Partly Cloudy with Thunderstorms 90 32.2 72 22.2 56 56 NNW 10 17 29.85 1011 10 16.09344 0 0
7:26 pm 19:26 Partly Cloudy with Nearby Thunderstorms 90 32.2 72 22.2 56 56 N 12 19 29.85 1011 10 16.09344 0 0
7:52 pm 19:52 Partly Cloudy with Nearby Thunderstorms 88 31.1 72 22.2 59 59 NW 6 9 29.85 1011 10 16.09344 0 0
8:13 pm 20:13 Partly Cloudy with Thunderstorms 88 31.1 72 22.2 59 59 NNW 9 15 29.88 1012 10 16.09344 0 0
8:28 pm 20:28 Partly Cloudy with Nearby Thunderstorms 89 31.7 71 21.7 55 55 NW 8 13 29.88 1012 10 16.09344 0 0
8:52 pm 20:52 Partly Cloudy 88 31.1 72 22.2 59 59 NW 6 9 29.85 1011 10 16.09344 0 0
9:21 pm 21:21 Partly Cloudy with Thunderstorms 88 31.1 71 21.7 57 57 WNW 5 7 29.88 1012 10 16.09344 0 0
9:36 pm 21:36 Partly Cloudy 88 31.1 71 21.7 57 57 W 5 7 29.88 1012 10 16.09344 0 0
9:52 pm 21:52 Mostly Clear 88 31.1 71 21.7 57 57 W 3 6 29.85 1011 10 16.09344 0 0
10:52 pm 22:52 Partly Cloudy 84 28.9 76 24.4 77 77 S 7 11 29.88 1012 10 16.09344 0 0
11:52 pm 23:52 Mostly Clear 83 28.3 76 24.4 79 79 SSW 3 6 29.88 1012 10 16.09344 0 0

Powered by AerisWeather